[[{"header":{"parameterUnit":"m.s-1","parameterCategory":1,"la1":30.2991,"la2":30.254,"lo1":-89.0895,"lo2":-89.0444,"dy":0.0017,"dx":0.0017,"nx":28,"ny":28,"refTime":"2025-07-13T21:00:00:Z","depth":0,"parameterNumber":2,"parameterNumberName":"U-component_of_WINDS"},"data":[0,0,0,0,0,0,0,0,0,0,0,0,0,0,0,0,0,0,0,0,0,0,0,0,0,0,0,0,0,0,0,0,0,0,0,0,0,0,0,0,0,0,0,0,0,0,0,0,0,0,0,0,0,0,0,0,0,0,2.4794,2.4796,0,2.4967,2.4969,2.4971,2.498,2.4978,2.4976,2.4974,2.5152,2.5159,2.5165,0,0,0,0,0,0,0,0,0,0,0,0,0,2.4474,2.4479,2.4794,2.4796,2.4798,2.4967,2.4969,2.4972,2.498,2.4978,2.4976,2.4973,2.515,2.5158,2.5166,0,0,0,0,0,0,0,0,0,0,0,0,0,2.4626,2.4481,2.4794,2.4823,2.4827,2.4966,2.4969,2.4972,2.4981,2.4978,2.4975,2.4972,2.5147,2.5157,2.5167,2.5288,0,0,2.5197,2.5201,0,0,0,0,0,0,0,0,2.4618,2.4638,2.4817,2.4821,2.4826,2.4949,2.4921,2.5078,2.4982,2.4923,2.4974,2.4971,2.5087,2.5102,2.5141,2.5297,2.5304,2.5198,2.5204,2.5208,2.5211,0,0,0,0,0,0,0,2.4607,2.4631,2.4862,2.4819,2.4825,2.4828,2.4847,2.4951,2.502,2.4928,2.4929,2.4949,2.5089,2.5131,2.5145,2.5307,2.5198,2.5207,2.5213,2.5217,2.5574,2.5577,0,0,0,0,0,0,2.459,2.4622,2.4857,2.4868,2.4712,2.4837,2.4857,2.4913,2.5019,2.5032,2.4951,2.4949,2.5116,2.5133,2.5151,2.5302,2.5208,2.5217,2.5223,2.557,2.5574,2.5578,0,0,0,0,0,0,2.4584,2.4611,2.485,2.4745,2.4776,2.4845,2.4908,2.4918,2.496,2.5037,2.5049,2.4982,2.5114,2.5137,2.5255,2.5308,2.5222,2.5231,2.5566,2.5571,2.5576,2.5603,0,0,0,0,0,0,2.4574,2.4609,2.4655,2.4746,2.4781,2.495,2.4911,2.4923,2.4977,2.4975,2.5068,2.5081,2.5114,2.524,2.5265,2.532,2.5239,2.5562,2.5568,2.5575,2.5598,2.5609,2.5618,0,0,0,0,0,2.4563,2.4655,2.4657,2.4686,2.484,2.4953,2.4973,2.5008,2.4981,2.5029,2.5078,2.5078,2.5298,2.5252,2.528,2.5339,2.5558,2.5566,2.5574,2.5593,2.5606,2.5618,0,0,0,0,0,0,2.4568,2.4668,2.4671,2.4796,2.4866,2.4954,2.5015,2.5021,2.5101,2.5096,2.5137,2.5158,2.5274,2.5319,2.5265,2.5464,2.5425,2.5439,2.543,2.5444,2.5453,2.544,2.5247,0,0,0,0,0,2.4584,2.4667,2.4749,2.4851,2.4886,2.4945,2.4995,2.5016,2.5091,2.5121,2.5179,2.5251,2.5337,2.5393,2.5476,2.5604,2.5626,2.5659,2.5669,2.5677,2.5689,2.5762,2.5778,2.5604,2.5604,2.5604,0,0,2.4617,2.4682,2.4731,2.4854,2.4911,2.4996,2.4969,2.506,2.5124,2.5134,2.5249,2.5294,2.5378,2.5502,2.556,2.5543,2.5742,2.5688,2.5693,2.5701,2.5772,2.5788,2.5803,2.561,2.5609,2.5608,0,0,2.4722,2.4778,2.487,2.4928,2.5015,2.5054,2.5076,2.5164,2.5195,2.531,2.532,2.5397,2.5544,2.5604,2.5654,2.5783,2.5786,2.5809,2.5862,2.5933,2.5946,2.5959,2.6006,2.6022,2.5821,2.5821,2.5821,0,2.4752,2.488,2.4917,2.5008,2.5063,2.5076,2.517,2.5225,2.5334,2.5372,2.5352,2.5537,2.5595,2.5733,2.5765,2.5805,2.5832,2.5798,2.5941,2.5954,2.5966,2.6012,2.6029,2.5823,2.5823,2.5822,2.5822,0,2.4914,2.5003,2.5067,2.5173,2.5235,2.5327,2.5378,2.5437,2.5454,2.5495,2.5613,2.5683,2.5781,2.5816,2.5833,2.5958,2.5945,2.5933,2.5895,2.5984,2.6028,2.6046,2.5826,2.5825,2.5825,2.5824,0,0,2.5026,2.5152,2.5175,2.5223,2.5321,2.5391,2.5485,2.5581,2.5631,2.5707,2.5787,2.5912,2.5902,2.5958,2.5982,2.6044,2.6144,2.6025,2.6027,2.6045,2.6288,2.6297,2.6316,2.6147,2.6151,2.6153,2.6281,0,2.5141,2.5308,2.5344,2.5488,2.5572,2.5587,2.5669,2.5738,2.578,2.5858,2.5904,2.5992,2.5971,2.6005,2.6068,2.6119,2.6194,2.611,2.6223,2.6227,2.6202,2.6339,2.6348,2.6466,2.6298,2.6301,2.6303,0,2.5298,2.5378,2.553,2.5618,2.5655,2.5727,2.582,2.5894,2.5973,2.5999,2.6063,2.6082,2.6181,2.6139,2.6278,2.622,2.6269,2.6302,2.6307,2.6319,2.627,2.6355,2.6504,2.6521,2.633,2.6328,2.6326,0,2.5365,2.551,2.5621,2.5662,2.5767,2.5819,2.5865,2.5942,2.5998,2.6079,2.6116,2.6208,2.6258,2.6329,2.6372,2.6337,2.6508,2.6469,2.6533,2.6532,2.6568,2.6565,2.6727,2.6599,2.6599,2.6598,2.6598,0,2.549,2.5583,2.5652,2.572,2.5825,2.5867,2.597,2.6017,2.6085,2.6163,2.6182,2.6255,2.6308,2.6389,2.6423,2.6533,2.6556,2.658,2.6589,2.6579,2.6576,2.6611,2.6604,2.6603,2.6602,2.6601,2.66,0,2.5582,2.5632,2.5754,2.5844,2.5869,2.5943,2.6021,2.6088,2.613,2.6229,2.6255,2.6322,2.6418,2.6468,2.6589,2.6612,2.6736,2.6739,2.6709,2.6713,2.6774,2.6768,2.6964,2.6993,2.6845,2.6847,2.6848,0,2.5659,2.5731,2.5829,2.5883,2.593,2.6016,2.6074,2.6119,2.6178,2.6276,2.6332,2.6429,2.6509,2.6663,2.6723,2.6815,2.6821,2.6884,2.6835,2.6824,2.6823,2.6819,2.6827,2.6892,2.6894,2.6895,2.6896,0,2.579,2.5812,2.5894,2.5986,2.6054,2.6128,2.6202,2.6245,2.6302,2.6368,2.6467,2.6529,2.6652,2.6749,2.6847,2.6896,2.6906,2.6911,2.6931,2.6921,2.6901,2.6914,2.6733,2.6906,2.6905,2.6904,2.6903,2.6903,2.5878,2.5943,2.6023,2.6114,2.6174,2.6243,2.6311,2.6362,2.6445,2.6549,2.6571,2.6676,2.6756,2.6888,2.694,2.7023,2.7011,2.7039,2.7046,2.7053,2.7056,2.6888,2.7041,2.7041,2.7041,2.7041,2.7041,0,2.601,2.6063,2.6147,2.6249,2.6322,2.6325,2.6407,2.6467,2.6559,2.6633,2.6712,2.6826,2.6921,2.6989,2.7086,2.714,2.7147,2.7164,2.716,2.7172,2.7062,2.7035,2.7156,2.7156,2.7156,2.7156,2.7156,2.7156,2.6088,2.6199,2.623,2.6372,2.6424,2.6527,2.6574,2.6638,2.6697,2.6824,2.6903,2.6946,2.7019,2.7121,2.7209,2.7226,2.7261,2.7278,2.7296,2.7192,2.7179,2.7168,2.7143,2.7285,2.7285,2.74,2.7401,2.7402]},{"header":{"parameterUnit":"m.s-1","parameterCategory":1,"la1":30.2991,"la2":30.254,"lo1":-89.0895,"lo2":-89.0444,"dy":0.0017,"dx":0.0017,"nx":28,"ny":28,"refTime":"2025-07-13T21:00:00:Z","depth":0,"parameterNumber":3,"parameterNumberName":"V-component_of_WINDS"},"data":[0,0,0,0,0,0,0,0,0,0,0,0,0,0,0,0,0,0,0,0,0,0,0,0,0,0,0,0,0,0,0,0,0,0,0,0,0,0,0,0,0,0,0,0,0,0,0,0,0,0,0,0,0,0,0,0,0,0,-0.4259,-0.4259,0,-0.4171,-0.417,-0.4169,-0.4143,-0.4143,-0.4144,-0.4144,-0.4045,-0.4042,-0.4039,0,0,0,0,0,0,0,0,0,0,0,0,0,-0.4396,-0.4394,-0.426,-0.4258,-0.4257,-0.4172,-0.417,-0.4169,-0.4143,-0.4143,-0.4144,-0.4144,-0.4046,-0.4042,-0.4039,0,0,0,0,0,0,0,0,0,0,0,0,0,-0.4325,-0.4393,-0.426,-0.4234,-0.4231,-0.4172,-0.417,-0.4169,-0.4143,-0.4143,-0.4144,-0.4145,-0.4047,-0.4043,-0.4038,-0.3995,0,0,-0.4024,-0.4022,0,0,0,0,0,0,0,0,-0.4329,-0.432,-0.4239,-0.4236,-0.4232,-0.4169,-0.4182,-0.411,-0.4142,-0.4176,-0.4144,-0.4145,-0.4085,-0.4077,-0.4059,-0.3991,-0.3987,-0.4024,-0.4021,-0.4019,-0.4017,0,0,0,0,0,0,0,-0.4334,-0.4324,-0.4224,-0.4238,-0.4234,-0.4224,-0.4215,-0.4168,-0.4127,-0.4173,-0.4171,-0.4161,-0.4083,-0.4064,-0.4056,-0.3985,-0.4024,-0.402,-0.4017,-0.4015,-0.3876,-0.3875,0,0,0,0,0,0,-0.4345,-0.4328,-0.4227,-0.4222,-0.4284,-0.4221,-0.4211,-0.4188,-0.4128,-0.4119,-0.4161,-0.416,-0.4071,-0.4062,-0.4053,-0.3998,-0.4019,-0.4014,-0.4012,-0.3877,-0.3876,-0.3875,0,0,0,0,0,0,-0.4348,-0.4336,-0.4231,-0.4274,-0.426,-0.4218,-0.4193,-0.4186,-0.4167,-0.4119,-0.411,-0.4149,-0.4071,-0.4059,-0.401,-0.3994,-0.4012,-0.4008,-0.3878,-0.3876,-0.3875,-0.3888,0,0,0,0,0,0,-0.4352,-0.4337,-0.4323,-0.4274,-0.4258,-0.4192,-0.4192,-0.4184,-0.416,-0.4158,-0.4105,-0.4097,-0.4071,-0.4017,-0.4006,-0.3988,-0.4005,-0.3879,-0.3877,-0.3876,-0.3889,-0.3888,-0.3886,0,0,0,0,0,-0.4357,-0.4328,-0.4322,-0.431,-0.4239,-0.4191,-0.4182,-0.4155,-0.4159,-0.4142,-0.4111,-0.4099,-0.3998,-0.4013,-0.3999,-0.398,-0.388,-0.3878,-0.3876,-0.389,-0.3888,-0.3886,0,0,0,0,0,0,-0.4372,-0.4321,-0.4314,-0.427,-0.4236,-0.4187,-0.4165,-0.4154,-0.4116,-0.4116,-0.4081,-0.407,-0.4023,-0.3996,-0.4013,-0.3935,-0.3938,-0.3933,-0.3954,-0.3951,-0.395,-0.3956,-0.4001,0,0,0,0,0,-0.4371,-0.434,-0.4295,-0.426,-0.4244,-0.4208,-0.4186,-0.4169,-0.413,-0.4115,-0.408,-0.4042,-0.4001,-0.3975,-0.3935,-0.3886,-0.3872,-0.3866,-0.3864,-0.3864,-0.3859,-0.3829,-0.3825,-0.3868,-0.3868,-0.3868,0,0,-0.4367,-0.4335,-0.4317,-0.4262,-0.4234,-0.4199,-0.4196,-0.4159,-0.4131,-0.4108,-0.406,-0.4034,-0.3988,-0.3939,-0.3915,-0.3915,-0.3845,-0.3861,-0.3861,-0.3856,-0.3827,-0.3823,-0.3819,-0.3866,-0.3867,-0.3867,0,0,-0.4342,-0.4316,-0.4283,-0.4256,-0.4214,-0.419,-0.4182,-0.4136,-0.4118,-0.4071,-0.4052,-0.4018,-0.395,-0.3917,-0.3892,-0.3856,-0.3842,-0.3843,-0.3835,-0.3807,-0.3803,-0.38,-0.3785,-0.378,-0.3839,-0.384,-0.384,0,-0.4341,-0.4291,-0.4267,-0.4232,-0.4207,-0.4188,-0.4153,-0.4126,-0.4072,-0.4055,-0.4057,-0.3971,-0.3938,-0.388,-0.3872,-0.3853,-0.384,-0.3848,-0.3806,-0.3803,-0.3799,-0.3785,-0.3779,-0.384,-0.384,-0.384,-0.384,0,-0.4291,-0.4256,-0.4235,-0.4186,-0.416,-0.4124,-0.4093,-0.4068,-0.4053,-0.4029,-0.3979,-0.394,-0.3892,-0.3877,-0.3861,-0.3816,-0.3818,-0.3814,-0.3816,-0.3796,-0.3782,-0.3776,-0.384,-0.384,-0.384,-0.384,0,0,-0.4271,-0.4212,-0.4204,-0.4182,-0.4135,-0.4106,-0.4069,-0.4025,-0.4003,-0.3967,-0.3933,-0.3876,-0.3872,-0.3844,-0.3824,-0.3799,-0.3771,-0.3797,-0.3796,-0.3792,-0.3717,-0.3719,-0.3713,-0.3762,-0.3761,-0.376,-0.372,0,-0.4239,-0.4176,-0.4153,-0.41,-0.4066,-0.4048,-0.4015,-0.3981,-0.3957,-0.3923,-0.3895,-0.3855,-0.3854,-0.3836,-0.3811,-0.378,-0.3755,-0.3782,-0.3727,-0.3726,-0.3738,-0.3706,-0.3708,-0.3672,-0.3714,-0.3713,-0.3713,0,-0.4192,-0.4158,-0.4102,-0.4059,-0.4044,-0.4016,-0.3973,-0.3942,-0.3902,-0.3886,-0.3855,-0.3837,-0.3795,-0.3802,-0.3742,-0.3761,-0.3737,-0.3718,-0.3716,-0.3708,-0.3717,-0.3695,-0.366,-0.3654,-0.3704,-0.3705,-0.3705,0,-0.4181,-0.4121,-0.408,-0.4062,-0.4011,-0.3991,-0.3968,-0.393,-0.3905,-0.3866,-0.3849,-0.3806,-0.3781,-0.3747,-0.3716,-0.3725,-0.3658,-0.3663,-0.3641,-0.3642,-0.3626,-0.3627,-0.3585,-0.3615,-0.3615,-0.3615,-0.3615,0,-0.4146,-0.4112,-0.4075,-0.4049,-0.401,-0.3984,-0.3944,-0.392,-0.3886,-0.3853,-0.3834,-0.3803,-0.3766,-0.3729,-0.3705,-0.3658,-0.3647,-0.3631,-0.3624,-0.3632,-0.3633,-0.3614,-0.3615,-0.3613,-0.3614,-0.3614,-0.3614,0,-0.4126,-0.4101,-0.4054,-0.4011,-0.3999,-0.3972,-0.3933,-0.3906,-0.3882,-0.3841,-0.3829,-0.379,-0.3746,-0.3714,-0.3655,-0.3639,-0.3588,-0.3582,-0.3602,-0.3599,-0.3578,-0.358,-0.352,-0.351,-0.3549,-0.3548,-0.3548,0,-0.4105,-0.4079,-0.4034,-0.4012,-0.399,-0.3955,-0.393,-0.3903,-0.3877,-0.383,-0.3808,-0.3763,-0.3726,-0.3656,-0.362,-0.3575,-0.3567,-0.3549,-0.356,-0.3567,-0.3564,-0.3565,-0.3561,-0.3547,-0.3547,-0.3546,-0.3546,0,-0.4068,-0.4057,-0.4024,-0.3985,-0.3957,-0.3925,-0.3892,-0.3874,-0.384,-0.3812,-0.3768,-0.374,-0.3682,-0.3637,-0.3589,-0.3562,-0.3547,-0.3544,-0.3536,-0.3542,-0.3554,-0.3545,-0.3596,-0.3545,-0.3545,-0.3545,-0.3545,-0.3545,-0.4045,-0.4021,-0.3986,-0.3949,-0.3922,-0.3892,-0.3865,-0.3838,-0.3803,-0.3756,-0.3741,-0.3695,-0.3655,-0.3589,-0.3562,-0.3524,-0.3524,-0.3513,-0.351,-0.3507,-0.3506,-0.3562,-0.3515,-0.3515,-0.3515,-0.3515,-0.3515,0,-0.4007,-0.3984,-0.395,-0.3906,-0.3876,-0.387,-0.3833,-0.3807,-0.3769,-0.3734,-0.3698,-0.3647,-0.3603,-0.3566,-0.3519,-0.3496,-0.3488,-0.3484,-0.3484,-0.3478,-0.351,-0.3521,-0.3492,-0.3492,-0.3492,-0.3492,-0.3492,-0.3492,-0.3983,-0.3941,-0.3926,-0.387,-0.3846,-0.3804,-0.3783,-0.3754,-0.3726,-0.3671,-0.3636,-0.3613,-0.3576,-0.3527,-0.3486,-0.3475,-0.3458,-0.3456,-0.3443,-0.3473,-0.3476,-0.3479,-0.3488,-0.3453,-0.3453,-0.3414,-0.3414,-0.3414]}]]